EHI
0 0 0 0 0 0 0 0 0 0 0 0 0 0 0 0 0 0 0 0 0 0 0 0 0 0 0 0 0 0 0 0 0 0 0 0 0 0
0 0 0 0 0 0 0 0 0 0 0 0 0 0 0 0 0 0 0 0 0 0 0 0 0 0 0 0 0 0 0 0 0 0 0 0 0 0
0 0 0 0 0 0 0 0 0 0 0 0 0 0 0 0 0 0 0 0 0 0 0 0 0 0 0 0 0 0 0 0 0 0 0 0 0 0
0 0 0 0 0 0 0 0 0 0 0 0 0 0 0 0 0 0 0 0 0 0 0 0 0 0 0 0 0 0 0 0 0 0 0 0 0 0
0 0 0 0 0 0 0 0 0 0 0 0 0 0 0 0 0 0 0 0 0 0 0 0 0 0 0 0 0 0 0 0 0 0 0 0 0 0
0 0 0 0 0 0 0 0 0 0 0 0 0 0 0 0 0 0 0 0 0 0 0 0 0 0 0 0 0 0 0 0 0 0 0 0 0 0
0 0 0 0 0 0 0 0 0 0 0 0 0 0 0 0 0 0 0 0 0 0 0 0 0 0 0 0 0 0 0 0 0 0 0 0 0 0
0 0 0 0 0 0 0 0 0 0 0 0 0 0 0 0 0 0 0 0 0 0 0 0 0 0 0 0 0 0 0 0 0 0 0 0 0 0
0 0 0 0 0 0 0 0 0 0 0 0 0 0 0 0 0 0 0 0 0 0 0 0 0 0 0 0 0 0 0 0 0 0 0 0 0 0
0 0 0 0 0 0 0 0 0 0 0 0 0 0 0 0 0 0 0 0 0 0 0 0 0 0 0 0 0 0 0 0 0 0 0 0 0 0
0 0 0 0 0 0 0 0 0 0 0 0 0 0 0 0 0 0 0 0 0 0 0 0 0 0 0 0 0 0 0 0 0 0 0 0 0 0
0 0 0 0 0 0 0 0 0 0 0 0 0 0 0 0 0 0 0 0 0 0 0 0 0 0 0 0 0 0 0 0 0 0 0 0 0 0
0 0 0 0 0 0 0 0 0 0 0 0 0 0 0 0 0 0 0 0 0 0 0 0 0 0 0 0 0 0 0 0 0 0 0 0 0 0
0 0 0 0 0 0 0 0 0 0 0 0 0 0 0 0 0 0 0 0 0 0 0 0 0 0 0 0 0 0 0 0 0 0 0 0 0 0
0 0 0 0 0 0 0 0 0 0 0 0 0 0 0 0 0 0 0 0 0 0 0 0 0 0 0 0 0 0 0 0 0 0 0 0 0 0
0 0 0 0 0 0 0 0 0 0 0 0 0 0 0 0 0 0 0 0 0 0 0 0 0 0 0 0 0 0 0 0 0 0 0 0 0 0
0 0 0 0 0 0 0 0 0 0 0 0 0 0 0 0 0 0 0 0 0 0 0 0 0 0 0 0 0 0 0 0 0 0 0 0 0 0
0 0 0 0 0 0 0 0 0 0 0 0 0 0 0 0 0 0 0 0 0 0 0 0 0 0 0 0 0 0 0 0 0 0 0 0 0 0
0 0 0 0 0 0 0 0 0 0 0 0 0 0 0 0 0 0 0 0 0 0 0 0 0 0 0 0 0 0 0 0 0 0 0 0 0 0
0 0 0 0 0 0 0 0 0 0 0 0 0 0 0 0 0 0 0 0 0 0 0 0 0 0 0 0 0 0 0 0 0 0 0 0 0 0
0 0 0 0 0 0 0 0 0 0 0 0 0 0 0 0 0 0 0 0 0 0 0 0 0 0 0 0 0 0 0 0 0 0 0 0 0 0
0 0 0 0 0 0 0 0 0 0 0 0 0 0 0 0 0 0 0 0 0 0 0 0 0 0 0 0 0 0 0 0 0 0 0 0 0 0
0 0 0 0 0 0 0 0 0 0 0 0 0 0 0 0 0 0 0 0 0 0 0 0 0 0 0 0 0 0 0 0 0 0 0 0 0 0
Wind_Speed
4 4 3 2 2 2 2 3 4 3 2 1 1 2 2 1 1 1 1 3 3 2 2 2 2 2 2 3 3 3 3 3 4 4 4 4 4 4
3 3 3 2 2 2 2 2 3 3 2 1 0 2 2 2 4 3 4 6 6 6 5 5 5 5 5 5 5 5 5 5 5 5 5 5 6 6
3 3 3 2 2 2 2 2 2 3 3 1 1 2 3 3 4 4 4 4 5 9 9 8 8 8 7 7 7 6 6 6 6 6 6 6 6 6
3 3 3 2 2 1 2 2 2 3 3 3 1 2 3 3 4 5 5 5 5 9 10 10 9 9 9 8 7 7 7 7 6 7 7 7 7 6
3 3 3 3 2 1 2 2 1 2 2 3 2 1 2 2 3 5 6 4 5 7 9 10 10 10 9 8 7 7 6 6 6 6 6 6 6 7
2 2 2 3 3 3 2 3 3 3 4 4 3 2 2 2 2 3 4 5 5 5 7 8 9 10 9 8 8 7 6 5 5 5 5 5 5 6
3 3 3 4 5 4 3 3 4 4 4 4 3 3 2 2 1 1 3 3 5 4 4 5 4 4 5 6 7 7 6 5 5 5 4 4 5 5
4 4 4 5 8 9 9 8 6 5 5 4 3 3 2 1 1 2 2 2 2 3 3 3 3 4 3 4 6 6 6 6 5 4 4 4 4 4
4 4 4 5 7 7 10 12 11 10 7 5 5 3 2 1 2 3 2 2 2 1 1 2 3 3 3 5 7 7 7 6 6 4 4 4 4 4
5 5 5 5 6 7 9 9 8 8 7 5 5 4 3 2 2 3 3 4 3 3 2 2 2 2 3 3 6 8 7 7 6 5 5 4 4 5
5 6 6 6 7 9 9 9 8 7 10 13 11 10 10 8 5 4 3 3 3 2 3 2 1 1 2 2 4 7 7 7 7 6 6 6 6 5
5 6 8 7 7 8 7 8 8 5 5 7 8 9 8 9 9 4 3 3 2 2 2 2 2 1 1 2 3 4 4 5 7 7 7 7 7 4
5 4 5 9 10 9 8 6 7 6 6 6 6 6 6 6 6 5 4 3 3 2 2 1 1 2 1 2 2 3 3 3 4 4 6 8 8 5
5 5 6 10 11 10 8 9 10 8 6 6 6 5 5 4 4 5 5 5 3 3 2 1 1 1 1 1 2 3 3 3 3 4 4 6 6 6
6 9 10 11 10 9 11 11 8 6 5 5 5 4 3 3 3 3 5 5 5 4 4 3 2 1 0 1 2 2 3 3 3 4 4 4 4 4
7 9 12 12 9 9 8 7 6 5 5 5 4 3 3 3 4 3 3 3 3 4 5 4 3 2 1 1 1 2 3 3 4 5 4 4 4 3
6 5 5 5 6 5 5 5 5 5 5 4 3 4 4 4 3 3 3 3 3 2 3 4 4 2 2 2 2 3 3 4 4 4 4 5 5 5
7 5 5 5 5 5 5 4 4 4 3 3 3 3 3 3 3 2 2 2 2 2 2 3 3 3 2 1 2 3 4 4 5 5 4 4 5 6
6 5 4 4 4 4 3 3 3 2 2 2 3 2 2 2 2 2 2 2 2 2 2 2 2 3 4 5 3 2 3 5 5 5 4 4 6 7
4 4 4 3 3 3 3 2 2 2 2 2 2 2 2 2 1 1 1 2 2 2 2 2 2 3 3 4 4 5 4 4 4 5 5 5 5 7
3 3 3 3 3 3 2 2 2 2 2 1 1 1 1 1 1 1 1 1 1 2 3 4 4 5 3 3 4 5 4 5 5 5 6 6 6 6
3 3 3 3 3 2 2 2 2 2 1 1 0 0 0 0 0 1 1 1 1 2 3 4 4 3 2 3 5 6 7 6 6 7 9 8 5 6
3 3 3 3 2 2 2 3 3 2 1 1 1 1 1 0 1 1 1 1 2 3 3 4 4 3 3 3 5 6 8 8 6 7 7 6 9 11
Wind_Direction
193 190 197 207 196 195 181 173 170 193 234 294 345 358 355 39 19 92 96 73 86 100 121 133 128 127 124 123 115 105 92 79 70 58 45 33 21 9
189 187 196 206 196 191 188 187 180 178 196 202 0 10 22 54 57 71 81 78 73 81 84 89 94 95 95 98 98 90 84 79 73 66 58 50 42 35
187 185 199 194 188 190 179 170 171 163 175 169 56 27 41 51 54 62 69 72 70 73 78 79 82 83 83 83 82 82 79 76 73 69 64 57 50 43
191 179 188 175 176 177 168 175 175 170 166 169 115 43 49 53 61 64 62 72 74 70 73 76 79 80 80 80 78 74 70 69 69 68 64 58 51 45
181 177 176 157 161 154 147 147 145 140 136 143 128 67 59 60 67 66 63 52 66 68 72 72 74 74 75 76 77 74 71 69 67 65 62 57 49 43
132 142 155 158 163 154 138 132 124 115 112 116 115 87 65 57 74 79 71 53 50 50 58 65 65 65 64 67 70 70 68 68 66 62 55 49 41 35
100 97 99 106 112 121 126 131 130 123 116 113 108 96 80 76 79 74 94 84 55 40 49 49 51 53 51 51 56 59 61 59 58 57 53 45 37 29
112 95 85 83 89 91 93 93 104 122 129 123 116 115 109 98 89 103 110 106 82 21 46 49 48 52 42 45 41 48 51 50 49 46 43 38 28 17
98 95 91 82 85 89 82 77 72 78 97 122 118 118 119 137 126 103 83 82 92 42 59 56 31 42 35 38 35 41 42 40 36 33 28 20 7 355
78 88 95 86 92 100 92 81 71 61 66 77 88 83 81 83 97 111 109 95 76 44 33 64 21 20 22 19 22 29 28 26 22 16 11 7 355 340
73 76 87 86 90 102 101 96 84 70 67 74 74 72 70 70 83 96 92 93 73 40 21 54 32 8 10 12 12 14 12 13 10 7 3 357 345 332
75 68 75 88 89 98 105 108 100 83 80 73 64 57 58 57 57 64 91 95 87 64 21 33 29 13 21 9 355 359 2 3 1 359 354 348 344 336
90 78 75 86 86 86 92 99 111 110 93 86 76 65 58 55 51 50 52 76 86 73 31 34 39 25 15 335 335 342 349 348 348 347 345 342 338 334
99 93 88 87 87 86 87 95 100 97 92 86 78 67 60 52 46 48 55 60 59 68 29 29 56 30 10 344 333 332 332 341 344 339 338 334 330 328
97 99 94 89 86 81 79 87 90 91 93 89 83 70 53 44 52 57 53 56 59 53 43 32 43 43 360 304 314 322 320 322 332 335 331 330 327 326
93 89 85 80 77 75 72 70 68 77 88 89 85 72 61 58 52 45 49 43 49 34 24 27 22 6 332 293 283 310 319 315 324 332 327 318 316 316
106 88 80 80 79 75 72 68 68 71 73 74 81 79 70 62 49 37 43 48 50 23 3 359 358 347 287 275 295 311 320 319 320 327 319 319 315 317
100 97 94 92 94 93 91 81 71 69 70 79 81 79 75 69 61 47 47 47 42 16 356 350 348 352 353 328 243 290 311 316 318 318 309 311 315 320
95 100 102 103 102 101 98 94 87 75 76 85 85 80 79 73 68 54 45 41 26 5 353 349 351 353 346 344 331 256 290 311 312 311 309 303 303 309
98 110 111 114 116 114 110 103 98 91 85 86 85 81 77 77 67 46 34 24 9 353 346 345 349 338 319 318 312 303 284 286 303 309 309 303 292 289
110 114 122 129 130 129 124 117 112 106 99 97 88 81 84 88 68 29 14 12 359 345 336 334 328 314 284 269 292 307 306 285 266 282 300 304 310 311
130 134 138 142 143 145 144 140 135 131 129 126 123 115 116 123 44 348 337 335 331 326 315 314 322 324 317 313 315 314 313 315 303 281 265 256 291 309
153 153 153 156 159 161 162 163 165 172 182 196 202 207 212 236 274 291 304 313 319 324 323 322 328 326 317 308 310 310 313 317 317 320 315 296 277 274